Temp
9 9 9 9 9 9 9 9 9 9 9 9 9 9 8 8 8 8 8 8 8 8 8 8 8 7 7 7 7 7 7 7 7 6 6 6 6 6 6 6 6 6 6 6 6 6 6 6 6 6 6 6 6 6 6 5 5 5 5 5 5 5
8 8 9 9 9 9 9 8 8 8 8 8 8 8 8 8 8 8 8 8 8 8 8 8 7 7 7 7 7 7 7 6 6 6 6 6 6 6 6 6 6 6 6 5 6 6 6 6 6 6 6 6 6 6 5 5 5 5 5 5 5 5
8 8 8 8 8 8 8 8 8 8 8 8 8 8 8 8 8 8 8 8 8 8 7 7 7 7 7 7 7 6 6 6 6 6 6 6 6 6 6 6 6 6 5 5 5 5 6 6 6 6 6 6 6 6 6 5 5 5 5 5 5 5
8 8 8 8 8 8 8 8 8 8 8 8 8 8 8 8 8 8 8 7 7 7 7 7 7 7 6 6 6 6 6 6 6 6 6 6 6 6 5 5 5 5 5 5 5 5 5 5 6 6 6 5 6 6 5 5 5 5 5 5 5 5
8 8 8 8 8 8 8 8 8 8 8 8 8 8 8 8 8 7 7 7 7 7 7 7 6 6 6 6 6 6 6 6 6 6 6 6 6 5 5 5 5 5 5 5 5 5 5 5 5 5 5 5 5 5 5 5 5 5 5 5 5 5
8 8 8 8 7 7 7 7 7 7 7 8 8 8 8 7 7 7 7 7 7 7 7 6 6 6 6 6 6 6 5 5 5 5 5 5 5 5 5 5 5 5 5 5 5 5 5 5 5 5 5 5 5 5 5 5 5 5 5 5 5 4
8 8 8 7 7 7 7 7 7 7 7 8 8 7 7 7 7 7 7 7 7 6 6 6 6 6 6 6 6 6 6 5 5 5 5 5 5 5 5 5 5 5 5 5 5 5 5 5 5 5 5 5 5 5 5 5 5 5 5 5 4 4
8 8 8 7 7 7 7 7 7 7 7 7 7 7 7 7 7 7 7 7 7 6 6 6 6 6 6 6 6 6 6 6 5 5 5 5 5 5 5 5 5 5 5 5 5 5 5 5 5 5 5 5 5 5 5 5 5 5 5 5 5 4
8 8 8 7 7 7 7 7 7 7 7 7 7 7 7 7 7 7 7 7 6 6 6 6 6 6 6 6 6 6 6 6 6 5 5 5 5 5 5 5 5 5 5 5 5 5 5 5 5 5 5 5 5 5 5 5 5 5 5 5 5 4
8 8 8 8 7 7 7 7 7 7 7 7 7 7 7 7 7 7 7 7 6 6 6 6 6 6 6 6 6 6 6 6 6 5 5 5 5 5 5 5 5 5 5 4 4 5 5 5 4 4 4 5 5 5 5 5 5 5 5 5 5 4
8 8 8 8 7 7 7 7 7 7 7 7 7 7 7 7 7 7 7 6 6 6 6 6 6 6 6 6 6 6 6 5 5 5 5 5 5 5 5 5 5 4 4 4 4 4 4 5 4 4 4 4 4 4 5 5 5 5 5 5 5 4
8 8 8 8 7 7 7 7 7 7 7 7 7 7 7 7 7 7 7 7 7 6 6 6 7 7 7 6 6 6 6 5 5 5 5 5 5 5 4 4 4 4 4 4 4 4 4 4 4 4 4 4 4 4 4 5 5 5 5 5 4 4
8 8 8 8 7 7 7 7 7 7 7 7 7 7 7 7 7 7 7 7 7 7 7 7 7 7 7 6 6 6 6 5 5 5 5 5 5 5 4 4 4 4 4 4 4 4 4 4 4 4 4 4 4 4 4 4 5 5 5 5 4 4
8 8 8 8 7 7 7 7 7 7 7 7 7 7 7 7 7 7 7 7 7 7 7 7 7 6 6 6 6 6 6 6 5 5 5 5 5 5 4 4 4 4 4 4 4 3 3 4 4 4 4 4 4 4 4 4 4 4 4 4 4 4
8 8 8 8 7 7 7 7 7 7 7 7 7 7 7 7 7 7 7 7 7 7 7 7 7 6 6 6 6 6 6 6 6 5 5 5 5 5 4 4 4 4 4 4 4 3 3 3 3 4 4 3 3 3 4 4 4 4 4 4 4 3
8 8 8 7 7 7 7 7 7 7 7 7 7 7 7 7 7 7 7 7 7 7 7 7 6 6 6 6 6 6 6 6 6 5 5 5 5 5 4 4 4 4 4 4 4 3 3 3 3 3 3 3 3 3 4 4 4 4 4 4 4 3
8 8 8 7 7 7 7 7 7 7 7 7 7 7 7 7 7 7 7 7 7 7 7 7 6 6 6 6 6 6 6 6 6 6 5 5 5 5 5 4 4 4 4 4 4 3 3 3 3 3 3 3 3 3 3 3 4 4 4 4 3 3
8 8 8 7 7 7 7 7 7 7 7 7 7 7 7 7 7 7 7 7 7 7 7 6 6 6 6 6 6 6 6 6 6 6 5 5 5 5 5 4 4 4 4 4 3 3 3 3 3 3 3 3 3 3 3 3 3 3 3 3 3 3
8 8 7 7 7 7 7 7 7 6 6 7 7 7 7 7 7 7 7 7 7 7 7 6 6 6 6 6 6 6 6 6 6 6 6 5 5 5 5 4 4 4 4 4 3 3 3 3 3 3 3 3 3 3 3 3 3 3 3 3 3 3
7 7 7 7 7 7 7 6 6 6 7 7 7 7 7 7 7 7 7 7 7 7 7 6 6 6 6 6 6 6 6 6 6 6 6 5 5 5 5 4 4 4 4 4 3 3 3 3 3 3 3 3 3 3 3 3 3 4 3 3 3 3
7 7 7 7 7 6 6 6 6 7 7 7 7 7 7 7 7 7 7 7 7 7 6 6 6 6 6 6 6 6 6 6 6 6 6 5 5 5 5 4 4 4 4 4 3 3 4 3 3 3 3 3 3 3 3 3 3 3 3 3 3 3
7 7 7 6 6 6 6 7 7 7 7 7 7 7 7 7 7 7 7 7 7 7 6 6 6 6 6 6 6 6 6 6 6 6 6 5 5 5 5 5 4 4 4 4 3 3 4 4 3 3 3 3 3 3 3 3 3 3 3 3 3 3
7 7 6 6 6 6 6 7 7 7 7 6 6 7 7 7 7 7 7 7 7 7 7 7 6 6 6 6 6 6 6 6 6 6 6 5 5 5 5 5 5 4 4 4 4 4 4 3 3 3 3 3 3 3 3 3 3 3 3 3 3 3
7 6 6 6 6 6 6 6 6 6 6 6 6 6 7 7 7 7 7 7 7 7 7 7 7 6 6 6 6 6 6 6 6 6 6 5 5 5 5 5 5 5 5 4 4 4 4 4 3 3 3 3 3 3 3 4 3 3 3 3 3 3
7 7 6 6 6 6 6 6 6 6 6 6 6 7 7 7 7 7 6 7 7 7 7 6 6 6 6 6 6 6 6 5 5 6 5 5 5 5 5 4 4 5 5 4 4 4 4 4 4 3 3 3 3 4 4 3 3 3 3 3 3 3
7 7 7 7 6 6 7 7 7 7 7 7 7 7 7 7 7 6 6 6 6 6 6 6 6 6 6 6 6 6 6 6 5 5 5 5 5 5 4 4 4 4 4 4 4 4 4 4 3 3 3 3 3 3 3 3 3 3 3 3 3 3
7 7 7 7 7 7 7 7 7 7 7 7 7 7 7 7 6 6 6 6 6 6 6 6 6 6 6 6 6 6 6 6 5 5 5 5 5 5 5 4 4 4 4 4 4 4 4 4 3 3 3 3 3 3 3 3 3 3 3 3 3 3
7 7 7 7 7 7 7 7 7 7 7 7 7 7 7 6 6 6 6 6 6 6 6 6 6 6 6 6 6 6 6 5 5 5 5 5 5 5 5 4 4 4 4 4 4 4 4 4 4 4 3 3 3 3 3 3 3 3 3 3 3 3
7 7 7 7 7 7 7 7 6 6 6 7 7 7 6 6 6 6 6 6 6 6 6 6 6 6 6 6 6 6 6 5 5 5 5 5 5 5 5 5 4 4 4 4 4 4 4 4 4 4 3 3 3 3 3 3 3 3 3 3 3 3
7 7 7 7 7 7 6 6 6 6 6 6 6 6 6 6 6 6 6 6 6 6 6 6 6 6 6 6 6 6 6 6 6 6 6 5 5 5 5 5 5 4 4 4 4 4 4 4 4 4 3 3 3 3 3 3 3 3 3 3 3 3
7 7 7 6 6 6 6 6 6 6 6 6 6 6 6 6 6 6 6 6 6 6 6 6 6 6 6 6 6 6 6 6 6 6 6 6 6 5 5 5 5 5 4 4 4 4 4 4 4 4 3 3 3 3 3 3 3 3 3 3 3 3
6 6 6 6 6 6 6 6 6 5 5 5 6 6 6 6 6 6 6 6 6 6 6 6 6 6 6 6 6 6 6 6 6 6 6 6 6 6 5 5 5 5 4 4 4 4 4 4 3 4 4 3 3 3 3 3 3 3 3 3 3 3
6 6 6 6 6 6 6 5 5 5 5 6 6 6 6 6 6 6 6 6 6 6 6 6 6 6 6 6 6 6 6 6 6 6 6 6 6 6 5 5 5 4 4 4 4 4 4 4 4 4 4 4 3 3 3 3 3 3 3 3 3 3
6 6 6 6 6 6 6 6 6 6 6 6 6 6 6 6 6 6 6 6 6 6 6 6 6 6 6 6 6 6 6 6 6 6 6 6 6 6 6 5 5 4 4 4 4 4 4 4 4 4 4 3 3 3 3 3 3 3 3 3 3 3
6 6 6 6 6 6 7 7 7 7 7 7 7 7 6 6 6 6 6 6 6 5 5 5 5 6 6 6 6 6 6 6 6 6 6 6 6 6 6 5 5 5 4 4 4 4 4 4 4 4 4 3 3 3 3 3 3 3 3 3 3 3
6 6 6 6 7 7 7 7 7 7 7 7 7 7 6 6 6 6 6 5 5 5 5 5 5 6 6 6 6 6 6 6 6 6 6 6 6 6 6 6 6 5 5 4 4 4 4 4 4 4 3 3 3 3 3 3 3 3 3 3 3 3
6 6 6 7 7 7 7 7 7 7 7 7 6 6 6 6 6 5 5 5 5 5 5 5 5 5 6 6 6 6 6 6 6 6 6 6 6 6 6 6 6 6 5 5 4 5 4 4 4 4 3 3 2 3 3 3 3 3 3 3 3 3
Height
3158 3158 3159 3161 3163 3164 3165 3166 3167 3168 3168 3169 3170 3170 3170 3171 3171 3171 3171 3171 3172 3172 3172 3172 3173 3173 3173 3173 3173 3173 3173 3173 3174 3174 3174 3174 3175 3175 3175 3174 3174 3174 3174 3174 3174 3174 3174 3174 3174 3174 3174 3174 3174 3173 3173 3173 3173 3173 3173 3172 3172 3172
3157 3157 3159 3161 3162 3164 3165 3165 3166 3167 3168 3168 3169 3169 3170 3170 3170 3170 3171 3171 3171 3172 3172 3172 3172 3172 3172 3172 3173 3173 3173 3173 3173 3173 3174 3174 3174 3174 3174 3174 3174 3174 3173 3173 3173 3173 3173 3174 3174 3174 3174 3174 3174 3173 3173 3173 3173 3173 3172 3172 3172 3171
3156 3157 3158 3160 3161 3162 3163 3164 3165 3166 3167 3167 3168 3169 3169 3169 3169 3170 3170 3170 3171 3171 3171 3172 3172 3172 3172 3172 3173 3173 3173 3173 3173 3173 3173 3173 3173 3174 3174 3174 3173 3173 3173 3173 3173 3173 3173 3173 3173 3174 3174 3174 3173 3173 3173 3173 3172 3172 3172 3171 3171 3171
3155 3157 3158 3160 3161 3161 3162 3163 3164 3165 3166 3166 3167 3168 3168 3168 3169 3169 3170 3170 3170 3170 3171 3171 3171 3171 3171 3172 3172 3172 3172 3172 3172 3173 3173 3173 3173 3173 3173 3173 3173 3173 3173 3172 3172 3172 3172 3172 3172 3173 3173 3173 3173 3173 3172 3172 3172 3172 3171 3171 3170 3170
3155 3157 3158 3160 3161 3161 3162 3162 3163 3164 3165 3166 3166 3167 3167 3168 3168 3169 3169 3169 3169 3169 3170 3170 3170 3171 3171 3171 3171 3171 3171 3171 3172 3172 3172 3172 3172 3172 3172 3172 3172 3172 3172 3172 3171 3171 3170 3171 3171 3171 3172 3172 3172 3172 3172 3172 3171 3171 3171 3170 3170 3169
3155 3157 3158 3159 3160 3160 3161 3162 3163 3164 3164 3165 3165 3166 3166 3167 3168 3168 3168 3168 3168 3169 3169 3169 3169 3170 3170 3170 3170 3170 3170 3170 3171 3171 3171 3171 3171 3171 3171 3171 3171 3171 3171 3170 3170 3170 3169 3169 3169 3170 3170 3171 3171 3171 3171 3171 3171 3171 3170 3170 3169 3168
3155 3157 3158 3158 3159 3159 3160 3161 3162 3163 3164 3164 3165 3166 3166 3167 3167 3167 3167 3168 3168 3168 3168 3168 3168 3169 3169 3169 3169 3169 3169 3169 3169 3169 3169 3169 3169 3169 3169 3169 3169 3169 3169 3169 3169 3168 3168 3168 3168 3168 3168 3169 3169 3170 3170 3170 3170 3170 3170 3169 3168 3168
3155 3156 3157 3158 3159 3159 3160 3161 3162 3163 3164 3164 3165 3165 3165 3166 3166 3166 3167 3167 3167 3167 3167 3167 3167 3168 3168 3168 3168 3168 3168 3168 3168 3168 3168 3168 3167 3167 3167 3167 3167 3168 3168 3167 3167 3167 3166 3166 3166 3166 3166 3167 3167 3168 3169 3169 3169 3169 3168 3168 3167 3167
3155 3156 3157 3158 3159 3159 3160 3161 3162 3163 3164 3164 3164 3165 3165 3165 3165 3166 3166 3166 3166 3166 3166 3167 3167 3167 3167 3167 3166 3166 3166 3166 3166 3166 3166 3166 3165 3165 3165 3165 3165 3165 3166 3166 3165 3165 3165 3165 3165 3165 3165 3165 3165 3166 3167 3167 3167 3167 3167 3167 3166 3165
3155 3156 3157 3158 3158 3159 3160 3161 3162 3163 3163 3164 3164 3165 3165 3165 3165 3165 3166 3166 3166 3166 3166 3166 3166 3166 3166 3166 3165 3165 3165 3165 3164 3164 3163 3163 3163 3163 3163 3163 3163 3163 3163 3164 3164 3163 3163 3163 3163 3163 3163 3163 3163 3164 3165 3166 3166 3166 3166 3166 3165 3165
3155 3156 3157 3158 3158 3159 3160 3161 3161 3162 3162 3163 3164 3164 3165 3165 3165 3165 3165 3165 3165 3165 3165 3165 3165 3165 3165 3165 3164 3164 3163 3163 3162 3161 3161 3161 3160 3160 3161 3161 3161 3161 3161 3161 3162 3162 3161 3162 3161 3160 3161 3161 3162 3162 3163 3164 3164 3165 3165 3166 3165 3165
3155 3156 3157 3158 3158 3158 3159 3160 3160 3161 3162 3163 3164 3164 3164 3164 3164 3164 3164 3164 3164 3164 3164 3164 3164 3164 3163 3163 3163 3162 3162 3161 3160 3159 3159 3158 3158 3157 3158 3158 3159 3159 3159 3159 3159 3160 3159 3160 3159 3159 3159 3160 3160 3161 3161 3162 3162 3163 3164 3165 3164 3163
3155 3156 3156 3157 3158 3158 3159 3159 3160 3161 3161 3162 3163 3163 3163 3164 3164 3164 3163 3163 3163 3163 3163 3163 3163 3162 3162 3162 3161 3161 3160 3159 3158 3157 3157 3156 3156 3155 3155 3156 3156 3156 3157 3157 3157 3157 3157 3157 3157 3157 3158 3158 3158 3159 3159 3160 3160 3161 3162 3163 3163 3161
3154 3155 3156 3156 3157 3158 3158 3159 3159 3160 3161 3161 3162 3162 3163 3163 3164 3164 3163 3163 3162 3162 3162 3161 3161 3161 3161 3160 3160 3159 3158 3157 3156 3156 3155 3154 3154 3153 3153 3153 3154 3154 3154 3154 3155 3155 3155 3155 3155 3155 3156 3156 3156 3157 3157 3157 3158 3159 3160 3161 3161 3160
3153 3154 3155 3156 3157 3158 3158 3158 3159 3159 3160 3161 3161 3162 3162 3163 3163 3163 3163 3162 3161 3161 3160 3160 3160 3160 3159 3158 3158 3157 3156 3156 3155 3154 3154 3153 3153 3152 3152 3152 3152 3152 3152 3152 3153 3153 3153 3153 3153 3153 3153 3154 3154 3155 3155 3155 3156 3157 3158 3159 3159 3159
3153 3154 3155 3156 3156 3157 3158 3158 3158 3159 3160 3160 3161 3162 3162 3162 3162 3162 3162 3161 3161 3160 3160 3159 3159 3158 3158 3157 3156 3155 3154 3154 3153 3153 3152 3152 3151 3151 3151 3150 3150 3149 3150 3150 3150 3150 3151 3151 3150 3150 3150 3151 3152 3152 3153 3153 3154 3155 3156 3157 3157 3157
3153 3154 3154 3155 3156 3156 3157 3158 3158 3159 3160 3160 3161 3162 3162 3162 3162 3161 3161 3160 3160 3159 3159 3158 3158 3157 3156 3155 3155 3154 3153 3152 3152 3151 3151 3150 3150 3150 3149 3149 3149 3148 3149 3149 3149 3148 3149 3149 3148 3148 3148 3149 3149 3150 3150 3151 3152 3153 3153 3154 3155 3155
3153 3154 3154 3155 3155 3156 3157 3158 3158 3159 3159 3160 3161 3161 3161 3161 3161 3161 3160 3160 3159 3159 3158 3157 3156 3156 3155 3154 3154 3153 3152 3152 3151 3150 3149 3149 3148 3147 3147 3147 3147 3147 3147 3147 3147 3146 3146 3146 3146 3146 3146 3146 3147 3147 3148 3149 3149 3150 3151 3152 3152 3152
3153 3154 3154 3155 3155 3156 3157 3158 3158 3158 3159 3160 3160 3160 3160 3160 3160 3160 3159 3159 3159 3158 3157 3156 3155 3154 3154 3153 3153 3152 3151 3151 3150 3149 3148 3147 3146 3145 3145 3145 3145 3145 3145 3145 3144 3145 3144 3144 3145 3145 3144 3144 3145 3145 3145 3146 3147 3147 3148 3149 3149 3150
3153 3153 3154 3155 3155 3156 3157 3157 3158 3158 3158 3159 3159 3160 3160 3160 3159 3159 3158 3158 3158 3157 3156 3155 3154 3154 3153 3153 3152 3152 3151 3149 3148 3148 3147 3146 3145 3144 3144 3143 3143 3143 3143 3142 3142 3142 3142 3142 3142 3143 3143 3143 3143 3143 3143 3144 3144 3145 3145 3146 3146 3146
3152 3153 3154 3154 3155 3156 3156 3156 3157 3157 3158 3158 3159 3159 3159 3159 3159 3158 3158 3157 3156 3156 3155 3154 3153 3153 3153 3152 3152 3151 3150 3148 3147 3146 3146 3145 3144 3143 3143 3142 3141 3141 3141 3140 3140 3139 3140 3140 3140 3141 3141 3141 3141 3141 3141 3142 3142 3143 3143 3143 3143 3144
3151 3152 3153 3154 3154 3155 3155 3156 3156 3156 3157 3158 3158 3158 3158 3158 3158 3158 3157 3156 3155 3155 3154 3153 3152 3152 3152 3151 3151 3149 3148 3147 3146 3145 3145 3144 3143 3142 3142 3141 3140 3139 3139 3139 3138 3138 3138 3138 3137 3138 3139 3138 3138 3139 3139 3140 3140 3141 3142 3142 3142 3142
3150 3151 3152 3153 3154 3154 3154 3155 3155 3156 3157 3157 3158 3158 3157 3157 3157 3156 3156 3155 3155 3154 3153 3152 3152 3151 3151 3150 3149 3148 3147 3146 3145 3144 3143 3143 3142 3141 3141 3140 3139 3138 3138 3137 3137 3136 3136 3136 3135 3136 3136 3136 3136 3136 3136 3137 3138 3139 3139 3139 3139 3140
3150 3151 3151 3152 3153 3153 3154 3154 3155 3155 3156 3156 3157 3157 3157 3156 3156 3156 3155 3155 3154 3153 3152 3151 3151 3150 3149 3148 3147 3146 3145 3144 3143 3143 3142 3142 3141 3140 3139 3139 3138 3137 3137 3136 3136 3135 3134 3134 3134 3134 3134 3134 3134 3133 3133 3134 3135 3136 3136 3136 3136 3137
3149 3150 3151 3151 3152 3152 3153 3153 3154 3155 3155 3155 3156 3156 3156 3156 3155 3155 3154 3154 3153 3152 3151 3150 3149 3149 3148 3147 3146 3145 3144 3143 3142 3141 3141 3140 3140 3139 3138 3137 3137 3136 3135 3135 3134 3134 3133 3133 3133 3133 3132 3132 3131 3130 3131 3132 3133 3133 3133 3133 3133 3134
3149 3149 3150 3151 3151 3152 3152 3153 3153 3154 3154 3154 3155 3155 3155 3154 3154 3153 3153 3152 3151 3150 3149 3148 3148 3147 3146 3145 3144 3143 3143 3142 3141 3140 3140 3139 3138 3137 3136 3135 3134 3134 3134 3133 3132 3131 3131 3131 3130 3130 3130 3130 3129 3128 3128 3129 3129 3129 3130 3130 3130 3131
3148 3149 3149 3150 3150 3151 3152 3152 3153 3153 3153 3154 3154 3154 3153 3153 3152 3152 3151 3150 3149 3148 3148 3147 3146 3146 3145 3144 3143 3142 3141 3140 3140 3139 3138 3138 3137 3136 3134 3133 3133 3132 3131 3131 3130 3129 3129 3129 3128 3127 3128 3127 3127 3126 3126 3126 3126 3126 3126 3126 3127 3128
3148 3148 3149 3150 3150 3150 3151 3151 3152 3152 3153 3153 3152 3152 3152 3151 3151 3150 3150 3149 3148 3147 3146 3146 3146 3145 3144 3143 3142 3140 3139 3139 3138 3137 3136 3136 3135 3134 3133 3132 3131 3130 3129 3128 3128 3127 3126 3126 3125 3125 3125 3125 3124 3124 3123 3122 3123 3123 3123 3123 3123 3124
3147 3148 3148 3149 3149 3150 3150 3151 3151 3151 3151 3151 3151 3150 3150 3150 3149 3149 3148 3147 3147 3146 3145 3145 3145 3144 3143 3141 3140 3139 3138 3137 3136 3135 3135 3134 3133 3132 3131 3130 3129 3128 3127 3126 3125 3124 3124 3123 3123 3122 3122 3122 3121 3121 3121 3120 3120 3120 3120 3119 3120 3120
3146 3147 3147 3148 3148 3149 3149 3149 3150 3150 3150 3150 3149 3149 3149 3148 3148 3147 3146 3146 3145 3144 3144 3144 3143 3142 3141 3140 3139 3137 3136 3136 3135 3134 3133 3132 3131 3130 3129 3128 3127 3125 3124 3123 3123 3122 3121 3120 3120 3119 3119 3119 3118 3118 3118 3117 3117 3117 3117 3116 3116 3117
3145 3146 3146 3147 3148 3148 3148 3148 3148 3148 3148 3148 3147 3147 3147 3146 3146 3145 3145 3144 3144 3143 3143 3142 3141 3141 3140 3139 3137 3136 3135 3135 3134 3133 3132 3130 3129 3128 3127 3126 3124 3123 3122 3121 3120 3119 3118 3117 3117 3116 3116 3115 3115 3114 3114 3113 3113 3113 3113 3113 3113 3113
3144 3145 3145 3146 3146 3147 3147 3147 3147 3147 3146 3146 3145 3145 3145 3145 3144 3144 3143 3143 3142 3142 3141 3140 3139 3138 3137 3137 3136 3135 3134 3133 3132 3131 3130 3129 3127 3126 3125 3123 3122 3121 3119 3119 3118 3116 3115 3114 3114 3113 3112 3112 3111 3110 3110 3109 3109 3109 3109 3109 3109 3109
3143 3144 3144 3145 3145 3146 3146 3146 3146 3145 3145 3145 3144 3144 3144 3143 3143 3142 3142 3141 3141 3140 3139 3138 3137 3136 3135 3134 3134 3133 3132 3131 3130 3129 3128 3127 3125 3124 3122 3121 3119 3118 3117 3116 3115 3113 3112 3111 3110 3109 3109 3108 3108 3106 3106 3106 3105 3105 3105 3105 3104 3105
3142 3142 3143 3143 3144 3144 3144 3144 3144 3144 3144 3144 3144 3143 3143 3142 3141 3141 3140 3140 3139 3139 3138 3137 3135 3134 3133 3132 3132 3131 3130 3129 3128 3127 3126 3124 3123 3122 3120 3118 3116 3115 3115 3113 3112 3110 3108 3108 3107 3106 3105 3104 3104 3103 3102 3102 3101 3101 3101 3101 3101 3101
3140 3141 3141 3142 3142 3142 3142 3142 3142 3142 3143 3143 3142 3142 3141 3140 3140 3139 3139 3138 3138 3137 3136 3135 3134 3133 3132 3131 3130 3129 3128 3127 3126 3125 3124 3122 3121 3119 3117 3115 3114 3113 3111 3110 3109 3107 3106 3104 3103 3101 3100 3099 3098 3098 3098 3098 3098 3098 3097 3097 3097 3098
3138 3139 3140 3140 3140 3140 3140 3140 3140 3141 3141 3141 3140 3140 3139 3138 3138 3138 3137 3137 3136 3135 3134 3133 3133 3132 3131 3130 3128 3127 3126 3125 3124 3123 3122 3120 3119 3117 3115 3113 3111 3110 3109 3107 3105 3104 3103 3101 3099 3097 3095 3094 3093 3093 3094 3094 3094 3094 3093 3093 3094 3094
3137 3137 3138 3138 3138 3138 3138 3138 3139 3139 3139 3139 3138 3138 3137 3137 3136 3136 3135 3135 3134 3133 3132 3132 3131 3131 3130 3128 3127 3126 3125 3124 3122 3121 3120 3118 3116 3115 3112 3110 3109 3107 3106 3104 3102 3100 3099 3098 3096 3093 3091 3090 3089 3089 3090 3091 3091 3090 3090 3089 3090 3091
Wind_Speed
10 11 11 11 10 11 11 11 11 11 10 10 9 9 9 8 8 8 8 8 8 8 8 8 7 7 6 6 7 7 8 8 8 8 9 9 9 9 9 9 9 10 10 10 9 9 8 7 7 6 5 5 5 4 5 6 7 8 9 9 10 11
11 11 11 10 10 10 11 11 11 11 10 10 10 10 9 9 8 8 8 8 7 7 8 8 7 7 7 7 8 8 9 9 9 9 10 11 11 11 11 11 11 12 12 12 12 12 11 10 9 8 7 7 7 6 7 7 8 9 10 11 11 12
12 12 11 10 11 11 11 11 11 10 10 9 9 9 9 9 9 8 8 8 7 7 8 8 8 7 7 7 8 9 10 10 11 11 11 12 13 13 13 13 13 14 14 15 15 15 15 13 12 11 9 9 9 9 9 9 10 11 12 13 14 14
12 11 10 10 10 11 11 11 10 9 9 9 9 9 9 9 8 8 7 7 7 7 7 7 8 8 7 8 8 10 10 11 12 13 13 14 14 15 15 14 15 15 16 16 17 17 17 16 15 14 12 12 12 11 11 11 12 12 13 15 16 16
12 12 11 10 9 10 10 10 9 9 9 9 9 9 9 9 8 8 7 7 7 7 7 7 7 7 7 8 8 9 10 11 12 14 15 16 16 17 17 16 16 17 17 18 18 18 19 19 18 17 15 15 14 14 14 14 13 14 15 15 17 18
12 12 12 12 11 11 11 10 10 10 11 10 10 10 10 10 9 8 8 7 7 7 6 6 7 6 7 8 9 9 10 11 13 14 16 17 18 19 19 18 18 18 18 19 20 20 20 20 20 19 18 18 17 17 17 16 15 15 16 16 16 18
11 11 12 12 12 12 12 11 11 12 11 10 9 10 11 10 9 9 8 8 7 6 6 6 7 7 7 8 9 10 11 12 13 14 16 18 19 20 20 20 20 20 20 21 21 22 22 22 22 22 21 20 19 18 18 19 18 18 18 17 17 18
11 11 12 12 12 12 12 11 12 12 10 8 8 10 11 10 10 9 9 8 7 6 6 6 8 9 9 10 11 12 13 14 15 15 16 17 18 20 21 22 22 22 22 22 22 23 23 23 23 23 23 23 21 20 19 20 20 20 20 20 19 19
13 12 12 12 12 11 11 10 11 11 9 8 8 9 10 10 10 9 9 8 8 7 7 8 8 10 11 12 13 14 15 15 16 17 16 17 18 19 21 23 24 24 23 23 23 24 25 25 24 25 25 25 24 22 21 21 21 21 21 22 21 21
13 12 12 12 12 11 10 10 11 10 10 9 8 8 8 9 9 9 9 9 9 9 9 10 10 11 13 14 15 15 16 16 16 17 17 18 19 20 21 22 24 25 25 25 24 25 26 26 26 26 27 26 26 25 24 23 23 22 22 23 22 20
14 14 14 13 13 12 12 11 11 11 11 9 7 7 8 9 9 9 10 10 11 11 12 12 12 12 13 13 14 16 17 17 17 17 16 17 18 20 20 21 23 25 26 26 26 26 27 27 27 28 28 27 27 26 26 25 25 24 24 23 22 20
16 16 15 15 15 15 14 12 12 11 10 9 7 8 9 9 10 10 11 11 12 12 13 13 13 13 13 14 14 16 17 17 17 18 17 16 17 19 19 19 21 23 25 26 27 27 27 28 29 30 29 28 28 27 27 27 27 26 25 23 22 21
18 17 16 16 16 16 14 12 11 10 10 9 9 10 10 10 10 11 11 12 12 13 13 13 13 14 15 15 15 16 16 17 17 17 17 16 16 18 18 18 20 22 24 26 27 27 28 29 29 30 30 28 28 28 28 28 27 26 25 23 22 20
18 18 17 16 16 15 13 12 11 11 11 10 10 10 10 10 10 11 11 12 12 12 12 13 14 15 15 16 16 16 16 16 17 16 16 16 16 17 18 18 19 21 23 25 26 27 29 30 30 30 29 28 28 29 29 28 28 26 25 24 23 21
18 18 17 16 16 14 13 12 11 11 11 11 10 10 10 11 11 10 10 10 10 11 12 13 14 15 16 16 16 16 16 16 17 16 16 16 16 17 17 18 19 21 22 24 25 26 28 29 30 31 30 29 29 29 29 29 28 26 25 25 24 23
18 18 17 16 16 14 13 12 11 11 10 10 10 10 10 10 9 9 8 9 10 10 12 13 14 15 15 16 16 16 16 17 16 16 16 16 16 16 17 17 19 21 21 22 24 25 26 27 29 31 31 30 29 29 29 30 28 25 25 24 24 24
16 16 15 16 15 14 13 12 11 10 10 10 10 10 9 8 7 7 8 8 9 10 12 13 14 15 15 15 15 15 16 17 16 15 15 16 16 16 16 17 18 21 20 20 22 24 25 26 28 29 29 29 28 28 28 28 28 26 25 24 23 24
13 13 13 14 14 14 13 12 11 10 11 10 9 8 6 6 6 7 8 8 10 11 12 13 14 14 14 14 14 14 15 15 15 15 15 15 16 15 16 16 17 19 19 19 20 22 24 26 27 27 26 27 27 27 26 26 28 27 26 25 23 25
11 11 11 11 12 12 12 11 11 10 10 10 8 6 5 6 6 7 9 10 11 12 13 13 14 15 15 14 14 14 14 15 14 14 14 15 15 16 15 15 17 17 16 18 19 19 22 24 24 25 26 26 26 26 25 26 28 27 26 25 24 25
10 9 9 9 10 10 10 10 10 10 10 9 7 6 6 6 7 8 10 11 11 12 12 13 14 15 16 16 15 15 15 15 15 14 14 15 15 15 14 14 14 14 13 16 18 19 21 23 23 25 25 25 25 25 25 27 28 27 27 26 26 26
10 9 9 9 9 10 11 11 11 11 10 8 7 7 7 7 7 8 9 10 11 13 13 15 16 16 16 16 16 15 15 15 15 15 14 14 15 14 14 13 13 13 14 16 18 19 21 22 23 23 24 25 25 25 25 26 27 27 27 27 27 26
11 10 10 10 10 11 11 11 11 11 9 8 7 8 8 7 6 7 9 10 12 14 15 16 17 17 17 16 15 15 15 15 15 15 15 14 14 14 14 13 13 15 16 17 18 17 19 21 22 20 20 23 25 25 25 26 27 27 27 27 26 25
12 11 11 10 11 11 11 11 10 10 9 8 8 8 9 9 8 9 10 11 13 14 16 17 18 17 17 16 14 14 15 15 16 16 16 15 14 14 14 14 15 16 17 17 17 17 18 19 20 19 20 23 24 25 26 26 26 26 27 26 25 24
12 12 12 12 12 12 11 11 10 9 8 8 8 9 10 10 11 11 11 12 13 14 16 17 17 17 16 16 15 15 15 15 16 17 17 16 14 14 15 15 16 16 17 18 17 18 18 19 19 20 22 24 24 26 27 25 24 24 26 27 25 25
12 13 12 12 12 11 11 10 9 8 8 7 8 9 10 10 11 11 12 13 14 14 15 16 15 15 15 15 16 15 15 15 16 17 17 16 16 16 16 16 17 18 18 19 18 18 19 20 20 21 23 25 26 27 27 25 24 25 26 26 26 26
12 11 12 12 12 11 10 10 9 8 7 8 8 9 9 10 11 12 13 14 14 15 15 15 14 14 14 15 16 16 16 15 16 16 17 17 17 17 18 18 19 19 19 20 21 20 19 19 21 22 24 24 25 27 27 26 26 26 26 26 26 26
10 10 10 10 10 10 9 9 8 8 8 8 9 9 9 10 11 13 14 15 15 15 15 14 13 14 15 16 17 17 17 17 17 17 17 17 17 18 19 20 21 21 21 22 22 23 21 21 22 23 24 25 25 26 27 27 28 27 27 27 27 27
9 8 8 8 8 8 8 9 9 9 9 9 10 10 10 12 13 14 15 15 16 15 14 12 12 13 15 16 16 17 18 18 19 19 20 19 19 19 19 20 21 22 23 23 24 25 24 24 25 24 24 26 26 27 28 29 29 28 29 29 29 29
9 8 8 8 8 9 9 9 10 10 11 11 11 11 12 13 14 15 16 16 16 14 13 12 12 14 15 16 17 17 18 18 19 20 21 21 21 21 21 21 22 23 23 24 24 25 25 26 27 27 26 26 27 28 29 31 31 30 31 31 31 31
9 8 8 8 8 9 9 10 11 12 12 12 12 12 13 15 16 16 16 16 16 14 12 12 13 13 14 16 16 17 17 17 18 20 21 22 22 22 22 22 23 24 25 24 23 24 25 26 27 29 29 28 28 29 29 31 32 31 31 33 33 33
9 8 7 7 8 9 10 11 12 12 13 14 14 13 14 16 17 17 17 16 15 13 13 13 13 13 13 14 15 16 17 17 18 20 21 22 23 23 23 23 24 25 26 26 25 25 25 25 26 28 30 31 31 30 29 31 33 32 33 34 35 35
10 8 8 9 9 10 11 12 12 13 15 15 15 15 16 17 18 18 17 15 14 13 13 13 13 13 13 14 15 16 17 18 19 21 22 23 23 23 24 24 25 26 26 27 27 27 27 26 27 28 30 32 32 31 30 31 32 33 33 34 35 35
11 9 10 10 11 12 12 13 14 15 16 16 15 16 17 18 17 17 16 15 14 13 13 13 14 14 15 16 17 18 19 20 21 22 23 24 23 23 24 24 25 25 26 27 28 29 30 29 30 31 32 33 34 33 32 32 32 32 31 33 34 35
11 11 12 12 12 13 14 15 16 15 15 14 15 16 17 18 17 16 15 15 15 14 14 14 14 15 16 18 19 19 20 21 22 23 24 24 24 24 24 24 24 24 25 26 28 30 32 32 32 33 34 34 35 34 32 32 32 31 32 32 33 34
12 13 13 13 14 14 14 14 14 13 13 14 16 17 18 17 16 15 15 15 15 14 14 14 14 16 18 19 20 20 21 21 22 23 24 24 25 24 24 24 23 23 24 25 28 29 31 32 34 35 36 35 34 33 32 32 32 31 32 32 31 32
14 14 14 14 14 13 13 13 13 13 14 16 17 17 17 17 15 15 14 14 14 14 14 15 15 16 18 19 20 20 21 22 23 23 23 24 24 25 25 25 24 24 24 25 28 29 29 30 33 34 34 32 31 31 31 31 31 31 32 32 30 30
16 15 15 15 14 13 13 13 13 15 16 17 18 17 17 16 15 14 15 15 15 15 16 16 16 17 18 19 20 21 22 23 24 24 24 24 25 26 26 26 25 25 25 26 29 29 28 29 30 30 29 28 28 28 27 29 30 30 31 31 29 30
Wind_Direction
198 197 196 195 197 199 203 209 213 216 217 218 221 226 230 233 237 243 250 253 255 262 266 268 267 263 262 260 260 254 247 243 240 241 243 244 242 238 238 241 246 254 255 252 251 250 252 252 248 243 244 256 266 280 290 298 304 306 309 315 318 318
184 189 188 188 191 197 201 205 212 215 216 217 220 224 227 231 236 241 249 253 257 263 268 270 270 269 269 270 267 260 254 248 242 240 243 246 246 243 240 242 245 250 254 256 256 257 261 263 262 259 257 264 272 279 286 294 299 304 308 310 312 313
174 180 181 181 186 194 199 203 208 212 215 216 219 223 226 229 233 238 245 250 255 260 266 272 272 274 273 271 269 263 259 254 248 243 243 246 247 247 244 244 246 248 253 257 258 260 264 266 267 267 265 268 275 280 285 290 296 302 306 308 310 309
165 168 170 174 181 191 196 199 201 204 208 212 216 220 224 227 230 233 237 241 247 254 263 270 271 270 270 267 262 258 255 254 253 250 249 248 248 248 247 247 248 249 252 256 258 260 265 267 268 269 268 270 274 280 286 290 294 299 302 305 306 305
157 157 154 157 171 186 191 192 192 192 197 202 209 212 218 223 224 224 227 234 240 248 257 263 263 261 262 265 262 255 251 250 253 253 252 252 252 250 249 249 249 250 252 255 259 260 263 267 268 269 269 271 273 277 281 285 291 296 301 303 302 302
163 159 151 154 167 180 184 185 183 185 189 192 200 208 213 215 215 217 224 235 242 247 255 260 262 262 264 270 272 265 258 254 254 253 252 252 253 252 251 250 249 250 252 254 258 260 262 265 267 268 269 270 272 276 279 282 286 291 297 300 299 297
177 167 160 161 167 175 179 179 181 183 185 187 196 204 209 210 212 220 230 241 249 256 265 272 276 281 282 281 283 281 275 269 263 258 254 251 250 250 250 250 250 250 250 252 255 258 260 263 266 268 269 269 270 274 278 282 284 286 290 295 295 292
186 177 170 169 169 175 179 178 180 181 183 192 198 204 209 213 221 230 238 248 259 272 283 289 291 294 294 291 291 290 287 282 277 271 262 256 251 248 247 248 250 251 251 251 253 256 258 261 263 266 268 269 270 272 276 281 284 285 287 291 291 287
191 186 179 177 178 181 184 182 181 185 195 208 211 212 215 220 229 237 245 256 271 286 295 297 298 297 296 296 295 294 292 289 286 282 274 265 258 252 248 246 248 250 251 251 252 254 257 259 261 263 265 268 270 271 274 278 282 286 288 289 288 284
195 192 189 187 189 190 194 194 192 200 215 224 223 219 221 227 234 243 254 268 282 291 297 300 301 298 296 295 295 296 295 294 291 287 282 274 266 258 252 248 246 247 250 251 251 252 255 258 260 260 262 265 268 271 273 276 280 284 288 289 287 284
197 196 197 196 196 198 202 203 204 214 228 234 230 223 226 236 247 258 267 277 286 292 298 302 302 298 294 292 294 295 295 295 292 288 285 280 274 266 259 253 247 246 248 249 250 251 254 257 259 261 262 264 267 270 273 276 279 282 286 290 289 286
198 198 201 201 200 201 205 209 214 221 231 237 236 234 236 246 260 272 280 284 288 292 296 298 297 294 292 292 292 291 291 293 292 289 287 283 279 274 267 258 251 248 248 249 249 250 252 255 258 261 263 265 267 270 272 274 278 281 285 290 288 284
199 200 203 204 203 204 209 216 220 222 228 234 239 241 243 252 267 279 284 285 286 288 290 290 291 290 290 291 289 289 290 290 289 288 287 285 281 276 271 264 256 251 248 249 250 249 251 253 256 259 262 264 266 269 271 272 275 280 285 289 287 283
199 200 204 206 205 207 212 219 221 221 225 232 237 241 247 259 271 279 280 280 281 283 285 286 287 289 290 292 292 293 294 292 291 289 286 284 282 278 273 268 261 254 251 250 250 250 250 251 253 257 260 263 266 267 269 271 274 278 283 285 283 282
199 200 204 206 206 208 214 220 223 224 227 231 235 244 257 269 274 275 272 272 276 280 283 285 288 291 293 296 298 299 298 297 295 290 286 283 282 280 275 270 264 257 253 252 252 252 251 252 253 255 258 261 265 267 268 269 271 276 280 281 280 279
198 200 201 203 205 209 214 220 224 226 230 233 240 253 263 270 269 266 265 269 276 282 285 289 292 295 297 300 303 303 302 302 298 292 286 284 284 283 279 273 268 261 255 253 254 253 252 253 254 258 261 262 263 264 265 267 270 274 277 277 278 278
197 200 200 201 205 210 216 221 224 228 234 241 248 255 258 258 258 261 267 275 282 287 290 294 295 297 300 303 305 305 305 305 303 296 290 288 287 286 284 278 273 270 265 259 257 256 253 253 256 260 263 264 263 261 261 266 269 272 275 275 275 276
199 202 202 202 206 212 219 224 227 231 237 242 245 244 243 247 256 265 272 280 285 289 292 295 296 298 300 303 306 307 308 308 307 302 296 292 289 285 284 281 278 278 278 269 262 259 256 255 258 260 260 261 260 259 259 262 266 268 271 272 270 271
199 202 206 206 207 214 220 225 228 231 233 232 230 229 237 251 262 270 277 283 286 289 292 294 295 298 299 301 304 308 310 311 309 306 301 295 289 284 281 281 280 281 282 274 267 263 260 257 258 258 257 257 256 257 259 260 261 264 267 268 266 266
188 194 200 201 202 208 213 218 222 224 223 220 219 222 234 250 264 275 281 285 288 291 294 294 295 296 298 300 303 307 309 308 306 304 301 294 289 286 281 279 281 284 286 280 272 266 263 261 257 255 254 255 255 256 258 260 261 262 264 265 264 262
174 179 184 185 188 196 203 209 213 213 213 211 213 222 233 245 261 276 283 289 294 299 299 296 296 296 298 300 302 304 303 301 301 300 300 296 291 287 283 283 285 287 286 281 274 267 266 267 263 258 255 254 254 254 257 260 263 264 264 263 260 258
168 170 172 177 184 192 199 205 207 206 206 208 217 230 239 248 265 285 291 295 299 301 301 298 297 298 298 299 300 299 297 296 296 297 299 297 293 289 284 283 283 281 279 277 273 267 265 266 267 266 261 256 255 256 257 260 262 261 261 259 258 259
168 169 171 178 186 194 199 200 200 202 207 215 227 237 245 254 272 291 296 298 298 299 299 298 298 299 299 300 299 297 296 295 295 295 295 294 291 288 285 283 282 280 278 278 276 269 261 261 265 268 265 261 261 261 260 261 261 260 259 259 259 261
170 172 175 182 189 195 198 197 199 204 213 222 233 241 247 256 270 285 294 296 297 298 297 297 297 298 298 299 299 299 299 297 296 296 296 294 291 288 288 287 286 285 284 283 281 276 269 264 263 262 263 264 265 264 263 264 263 261 261 261 260 261
172 175 179 185 190 195 195 197 202 209 220 229 236 243 249 258 269 280 289 294 297 299 297 296 297 297 296 297 298 299 298 297 295 295 295 295 293 290 289 286 284 285 287 288 285 280 276 275 271 267 265 266 267 268 268 266 260 256 257 259 259 259
172 175 179 184 188 192 194 198 206 216 227 236 243 250 255 263 273 281 288 294 299 301 298 296 297 298 297 296 297 297 297 297 295 292 293 296 298 295 291 286 284 284 285 286 285 282 279 276 273 270 270 271 271 271 271 268 262 258 257 257 257 259
169 170 174 180 185 190 195 201 211 221 232 242 249 257 264 271 278 284 291 296 299 300 296 293 295 297 296 296 297 298 298 298 297 295 294 297 300 298 294 291 288 287 286 285 284 283 281 277 272 270 271 272 271 270 270 269 266 263 261 260 259 261
165 166 173 182 190 198 206 213 222 232 241 249 257 265 272 278 282 285 290 294 294 294 290 288 289 292 294 295 296 297 297 297 297 297 297 298 297 295 294 291 288 287 286 285 284 283 283 280 278 275 272 270 269 268 268 268 267 265 264 262 260 260
172 174 183 192 201 210 219 227 234 242 249 255 263 271 278 282 285 287 290 291 289 286 283 283 287 290 293 296 297 295 295 296 296 296 297 297 294 291 290 287 286 286 285 285 284 284 283 281 279 278 274 272 270 268 267 268 267 265 264 263 261 260
190 190 199 208 218 228 235 242 247 253 257 261 266 272 281 285 288 290 290 289 286 282 282 286 291 293 294 294 296 296 296 298 298 298 298 296 293 289 286 283 282 283 284 286 286 285 285 283 281 278 276 274 272 270 269 268 267 266 265 264 263 261
207 208 219 229 240 250 254 257 261 266 269 271 274 278 284 288 291 292 291 286 282 280 283 289 293 294 293 292 294 296 298 299 300 300 299 296 294 290 286 283 281 281 283 286 286 286 286 287 285 282 280 277 273 272 271 270 269 267 265 264 263 262
221 224 234 242 251 257 260 264 267 271 273 275 278 283 286 289 292 292 289 282 279 282 287 292 294 295 296 297 299 300 302 304 304 302 300 297 295 292 287 283 282 281 283 285 286 286 285 285 285 283 282 280 275 272 271 270 269 267 266 266 265 264
227 233 242 249 255 259 262 265 266 267 270 273 277 283 287 290 292 289 285 281 282 289 294 299 303 305 307 308 308 308 308 309 308 305 303 300 298 294 289 285 283 282 282 283 284 284 284 283 281 281 281 280 277 272 270 270 268 266 266 265 264 262
229 236 246 252 256 261 263 264 265 266 268 272 277 282 286 289 289 286 284 287 292 297 303 307 311 312 312 312 311 311 311 312 310 307 305 303 301 298 294 291 288 285 284 283 283 283 283 282 281 281 280 278 275 271 268 269 268 267 266 265 264 260
234 239 248 254 258 262 265 265 268 269 270 275 280 284 289 291 290 289 291 296 299 303 306 310 312 312 312 311 312 312 313 313 311 308 306 304 303 301 300 299 297 294 289 286 284 283 283 283 284 284 282 277 272 269 266 267 268 268 267 266 264 260
241 246 251 257 261 264 265 266 269 272 277 282 286 290 293 294 294 296 298 300 302 303 305 308 311 312 312 311 312 313 314 313 312 310 309 307 306 304 303 303 303 300 296 291 288 288 287 287 288 288 284 278 271 266 264 265 266 267 267 265 261 258
244 249 254 258 261 262 263 267 272 278 283 286 290 294 295 296 297 298 299 299 299 300 302 307 311 312 312 312 313 313 313 312 311 311 311 310 308 307 306 305 305 304 300 295 292 293 292 292 291 288 283 276 271 267 264 264 265 268 271 267 260 256